Time,TemperatureF,DewpointF,PressureIn,WindDirection,WindDirectionDegrees,WindSpeedMPH,WindSpeedGustMPH,Humidity,HourlyPrecipIn,Conditions,Clouds,dailyrainin,SoftwareType,DateUTC
2013-03-24 00:03:00,29.0,24.0,30.01,ENE,59,4.0,8.0,82,0.00,,,0.00,,2013-03-24 04:03:00,
2013-03-24 00:13:00,29.0,24.0,30.01,ENE,59,4.0,8.0,82,0.00,,,0.00,,2013-03-24 04:13:00,
2013-03-24 00:23:00,29.0,25.0,30.01,NE,56,6.0,10.0,83,0.00,,,0.00,,2013-03-24 04:23:00,
2013-03-24 00:33:00,28.0,24.0,30.00,NE,55,4.0,7.0,84,0.00,,,0.00,,2013-03-24 04:33:00,
2013-03-24 00:43:00,28.0,24.0,30.00,NE,55,4.0,7.0,84,0.00,,,0.00,,2013-03-24 04:43:00,
2013-03-24 00:53:00,29.0,25.0,29.99,ENE,58,5.0,9.0,85,0.00,,,0.00,,2013-03-24 04:53:00,
2013-03-24 01:03:00,28.0,24.0,29.99,NE,55,7.0,10.0,85,0.00,,,0.00,,2013-03-24 05:03:00,
2013-03-24 01:13:00,28.0,24.0,29.99,NE,55,7.0,10.0,85,0.00,,,0.00,,2013-03-24 05:13:00,
2013-03-24 01:23:00,28.0,24.0,30.00,NE,55,4.0,9.0,85,0.00,,,0.00,,2013-03-24 05:23:00,
2013-03-24 01:32:00,27.0,23.0,30.01,ENE,75,0.0,5.0,86,0.00,,,0.00,,2013-03-24 05:32:00,
2013-03-24 01:43:00,27.0,23.0,30.01,ENE,75,0.0,5.0,86,0.00,,,0.00,,2013-03-24 05:43:00,
2013-03-24 01:52:00,26.0,23.0,30.00,NE,49,1.0,3.0,87,0.00,,,0.00,,2013-03-24 05:52:00,
2013-03-24 02:02:00,27.0,24.0,29.99,NE,38,3.0,6.0,87,0.00,,,0.00,,2013-03-24 06:02:00,
2013-03-24 02:12:00,27.0,24.0,29.99,NE,38,3.0,6.0,87,0.00,,,0.00,,2013-03-24 06:12:00,
2013-03-24 02:22:00,27.0,24.0,29.99,ENE,57,3.0,8.0,87,0.00,,,0.00,,2013-03-24 06:22:00,
2013-03-24 02:32:00,27.0,24.0,29.99,NE,52,3.0,5.0,87,0.00,,,0.00,,2013-03-24 06:32:00,
2013-03-24 02:42:00,27.0,24.0,29.99,NE,52,3.0,5.0,87,0.00,,,0.00,,2013-03-24 06:42:00,
2013-03-24 02:52:00,27.0,24.0,29.99,NE,42,3.0,7.0,87,0.00,,,0.00,,2013-03-24 06:52:00,
2013-03-24 03:02:00,27.0,24.0,29.99,NE,38,3.0,6.0,87,0.00,,,0.00,,2013-03-24 07:02:00,
2013-03-24 03:12:00,27.0,24.0,29.99,NE,38,3.0,6.0,87,0.00,,,0.00,,2013-03-24 07:12:00,
2013-03-24 03:22:00,27.0,24.0,30.00,NE,45,2.0,5.0,87,0.00,,,0.00,,2013-03-24 07:22:00,
2013-03-24 03:32:00,26.0,23.0,30.00,NE,40,3.0,5.0,88,0.00,,,0.00,,2013-03-24 07:32:00,
2013-03-24 03:42:00,26.0,23.0,30.00,NE,40,3.0,5.0,88,0.00,,,0.00,,2013-03-24 07:42:00,
2013-03-24 03:52:00,26.0,23.0,30.01,NE,36,2.0,7.0,88,0.00,,,0.00,,2013-03-24 07:52:00,
2013-03-24 04:03:00,26.0,23.0,30.01,NE,36,3.0,5.0,89,0.00,,,0.00,,2013-03-24 08:03:00,
2013-03-24 04:12:00,26.0,23.0,30.01,NE,36,3.0,5.0,89,0.00,,,0.00,,2013-03-24 08:12:00,
2013-03-24 04:22:00,26.0,23.0,29.99,NE,34,4.0,7.0,88,0.00,,,0.00,,2013-03-24 08:22:00,
2013-03-24 04:32:00,26.0,23.0,29.98,NE,34,5.0,7.0,88,0.00,,,0.00,,2013-03-24 08:32:00,
2013-03-24 04:42:00,26.0,23.0,29.98,NE,34,5.0,7.0,88,0.00,,,0.00,,2013-03-24 08:42:00,
2013-03-24 04:52:00,26.0,23.0,29.98,NE,56,3.0,7.0,89,0.00,,,0.00,,2013-03-24 08:52:00,
2013-03-24 05:02:00,26.0,23.0,29.98,NE,38,2.0,5.0,89,0.00,,,0.00,,2013-03-24 09:02:00,
2013-03-24 05:12:00,26.0,23.0,29.98,NE,38,2.0,5.0,89,0.00,,,0.00,,2013-03-24 09:12:00,
2013-03-24 05:22:00,26.0,23.0,29.97,NE,51,2.0,7.0,89,0.00,,,0.00,,2013-03-24 09:22:00,
2013-03-24 05:33:00,26.0,23.0,29.97,NE,55,3.0,6.0,89,0.00,,,0.00,,2013-03-24 09:33:00,
2013-03-24 05:42:00,26.0,23.0,29.97,NE,55,3.0,6.0,89,0.00,,,0.00,,2013-03-24 09:42:00,
2013-03-24 05:53:00,26.0,23.0,29.96,NE,53,3.0,6.0,89,0.00,,,0.00,,2013-03-24 09:53:00,
2013-03-24 06:03:00,26.0,23.0,29.96,NE,54,3.0,7.0,89,0.00,,,0.00,,2013-03-24 10:03:00,
2013-03-24 06:12:00,26.0,23.0,29.96,NE,54,3.0,7.0,89,0.00,,,0.00,,2013-03-24 10:12:00,
2013-03-24 06:22:00,27.0,24.0,29.95,ENE,57,5.0,8.0,89,0.00,,,0.00,,2013-03-24 10:22:00,
2013-03-24 06:33:00,27.0,24.0,29.95,ENE,58,4.0,8.0,89,0.00,,,0.00,,2013-03-24 10:33:00,
2013-03-24 06:42:00,27.0,24.0,29.95,ENE,58,4.0,8.0,89,0.00,,,0.00,,2013-03-24 10:42:00,
2013-03-24 06:52:00,27.0,24.0,29.94,ENE,62,4.0,8.0,89,0.00,,,0.00,,2013-03-24 10:52:00,
2013-03-24 07:03:00,27.0,24.0,29.94,ENE,75,5.0,9.0,88,0.00,,,0.00,,2013-03-24 11:03:00,
2013-03-24 07:12:00,27.0,24.0,29.94,ENE,75,5.0,9.0,88,0.00,,,0.00,,2013-03-24 11:12:00,
2013-03-24 07:22:00,27.0,24.0,29.93,ENE,63,6.0,10.0,88,0.00,,,0.00,,2013-03-24 11:22:00,
2013-03-24 07:33:00,27.0,24.0,29.93,ENE,63,6.0,10.0,88,0.00,,,0.00,,2013-03-24 11:33:00,
2013-03-24 07:42:00,27.0,24.0,29.93,ENE,63,6.0,10.0,88,0.00,,,0.00,,2013-03-24 11:42:00,
2013-03-24 07:52:00,28.0,25.0,29.92,ENE,66,7.0,9.0,89,0.00,,,0.00,,2013-03-24 11:52:00,
2013-03-24 08:03:00,28.0,25.0,29.92,ENE,66,7.0,9.0,89,0.00,,,0.00,,2013-03-24 12:03:00,
2013-03-24 08:13:00,28.0,25.0,29.92,ENE,66,7.0,9.0,89,0.00,,,0.00,,2013-03-24 12:13:00,
2013-03-24 08:22:00,28.0,25.0,29.91,ENE,71,9.0,13.0,89,0.00,,,0.00,,2013-03-24 12:22:00,
2013-03-24 08:32:00,28.0,25.0,29.91,ENE,77,8.0,12.0,89,0.00,,,0.00,,2013-03-24 12:32:00,
2013-03-24 08:42:00,28.0,25.0,29.91,ENE,77,8.0,12.0,89,0.00,,,0.00,,2013-03-24 12:42:00,
2013-03-24 08:52:00,28.0,25.0,29.92,East,82,8.0,11.0,89,0.00,,,0.00,,2013-03-24 12:52:00,
2013-03-24 09:02:00,28.0,25.0,29.90,ENE,69,9.0,13.0,89,0.00,,,0.00,,2013-03-24 13:02:00,
2013-03-24 09:13:00,28.0,25.0,29.90,ENE,69,9.0,13.0,89,0.00,,,0.00,,2013-03-24 13:13:00,
2013-03-24 09:22:00,29.0,26.0,29.89,ENE,69,10.0,13.0,89,0.00,,,0.00,,2013-03-24 13:22:00,
2013-03-24 09:32:00,29.0,26.0,29.89,East,85,10.0,15.0,90,0.00,,,0.00,,2013-03-24 13:32:00,
2013-03-24 09:42:00,29.0,26.0,29.89,East,85,10.0,15.0,90,0.00,,,0.00,,2013-03-24 13:42:00,
2013-03-24 09:52:00,29.0,26.0,29.88,East,84,12.0,15.0,89,0.00,,,0.00,,2013-03-24 13:52:00,
2013-03-24 10:02:00,29.0,26.0,29.88,East,82,10.0,17.0,89,0.00,,,0.00,,2013-03-24 14:02:00,
2013-03-24 10:13:00,29.0,26.0,29.88,East,82,10.0,17.0,89,0.00,,,0.00,,2013-03-24 14:13:00,
2013-03-24 10:22:00,30.0,27.0,29.87,NE,46,11.0,16.0,89,0.00,,,0.00,,2013-03-24 14:22:00,
2013-03-24 10:33:00,30.0,27.0,29.87,East,99,13.0,19.0,87,0.00,,,0.00,,2013-03-24 14:33:00,
2013-03-24 10:42:00,30.0,27.0,29.87,East,99,13.0,19.0,87,0.00,,,0.00,,2013-03-24 14:42:00,
2013-03-24 10:52:00,30.0,27.0,29.86,East,86,13.0,18.0,87,0.00,,,0.00,,2013-03-24 14:52:00,
2013-03-24 11:02:00,31.0,27.0,29.85,ENE,78,14.0,19.0,86,0.00,,,0.00,,2013-03-24 15:02:00,
2013-03-24 11:12:00,31.0,27.0,29.85,ENE,78,14.0,19.0,86,0.00,,,0.00,,2013-03-24 15:12:00,
2013-03-24 11:22:00,31.0,27.0,29.84,ENE,60,14.0,21.0,85,0.00,,,0.00,,2013-03-24 15:22:00,
2013-03-24 11:33:00,31.0,27.0,29.84,ENE,61,13.0,17.0,85,0.00,,,0.00,,2013-03-24 15:33:00,
2013-03-24 11:43:00,31.0,27.0,29.84,ENE,61,13.0,17.0,85,0.00,,,0.00,,2013-03-24 15:43:00,
2013-03-24 11:53:00,31.0,27.0,29.83,East,84,12.0,16.0,84,0.00,,,0.00,,2013-03-24 15:53:00,
2013-03-24 12:03:00,32.0,28.0,29.83,ENE,71,11.0,18.0,84,0.00,,,0.00,,2013-03-24 16:03:00,
2013-03-24 12:13:00,32.0,28.0,29.83,ENE,71,11.0,18.0,84,0.00,,,0.00,,2013-03-24 16:13:00,
2013-03-24 12:23:00,32.0,27.0,29.82,East,82,14.0,19.0,83,0.00,,,0.00,,2013-03-24 16:23:00,
2013-03-24 12:33:00,32.0,27.0,29.80,ENE,78,14.0,19.0,82,0.00,,,0.00,,2013-03-24 16:33:00,
2013-03-24 12:43:00,32.0,27.0,29.80,ENE,78,14.0,19.0,82,0.00,,,0.00,,2013-03-24 16:43:00,
2013-03-24 12:52:00,33.0,28.0,29.79,ENE,78,14.0,21.0,81,0.00,,,0.00,,2013-03-24 16:52:00,
2013-03-24 13:03:00,33.0,28.0,29.78,East,80,16.0,24.0,80,0.00,,,0.00,,2013-03-24 17:03:00,
2013-03-24 13:12:00,33.0,28.0,29.78,East,80,16.0,24.0,80,0.00,,,0.00,,2013-03-24 17:12:00,
2013-03-24 13:23:00,33.0,27.0,29.77,ENE,72,17.0,24.0,78,0.00,,,0.00,,2013-03-24 17:23:00,
2013-03-24 13:33:00,33.0,27.0,29.77,East,80,15.0,23.0,78,0.00,,,0.00,,2013-03-24 17:33:00,
2013-03-24 13:42:00,33.0,27.0,29.77,East,80,15.0,23.0,78,0.00,,,0.00,,2013-03-24 17:42:00,
2013-03-24 13:52:00,33.0,27.0,29.76,East,93,16.0,22.0,77,0.00,,,0.00,,2013-03-24 17:52:00,
2013-03-24 14:03:00,33.0,26.0,29.75,ENE,58,13.0,21.0,76,0.00,,,0.00,,2013-03-24 18:03:00,
2013-03-24 14:12:00,33.0,26.0,29.75,ENE,58,13.0,21.0,76,0.00,,,0.00,,2013-03-24 18:12:00,
2013-03-24 14:22:00,33.0,25.0,29.75,ENE,75,15.0,23.0,73,0.00,,,0.00,,2013-03-24 18:22:00,
2013-03-24 14:33:00,33.0,26.0,29.75,East,83,16.0,23.0,74,0.00,,,0.00,,2013-03-24 18:33:00,
2013-03-24 14:43:00,33.0,26.0,29.75,East,83,16.0,23.0,74,0.00,,,0.00,,2013-03-24 18:43:00,
2013-03-24 14:52:00,33.0,26.0,29.74,ENE,63,14.0,22.0,75,0.00,,,0.00,,2013-03-24 18:52:00,
2013-03-24 15:03:00,33.0,26.0,29.74,East,82,13.0,19.0,75,0.00,,,0.00,,2013-03-24 19:03:00,
2013-03-24 15:12:00,33.0,26.0,29.74,East,82,13.0,19.0,75,0.00,,,0.00,,2013-03-24 19:12:00,
2013-03-24 15:22:00,33.0,25.0,29.72,ENE,67,15.0,19.0,73,0.00,,,0.00,,2013-03-24 19:22:00,
2013-03-24 15:32:00,33.0,25.0,29.71,East,90,17.0,26.0,73,0.00,,,0.00,,2013-03-24 19:32:00,
2013-03-24 15:43:00,33.0,25.0,29.71,East,90,17.0,26.0,73,0.00,,,0.00,,2013-03-24 19:43:00,
2013-03-24 15:52:00,34.0,26.0,29.70,East,90,15.0,21.0,73,0.00,,,0.00,,2013-03-24 19:52:00,
2013-03-24 16:03:00,34.0,25.0,29.69,East,101,21.0,28.0,70,0.00,,,0.00,,2013-03-24 20:03:00,
2013-03-24 16:12:00,34.0,25.0,29.69,East,101,21.0,28.0,70,0.00,,,0.00,,2013-03-24 20:12:00,
2013-03-24 16:22:00,34.0,26.0,29.67,ENE,74,18.0,26.0,72,0.00,,,0.00,,2013-03-24 20:22:00,
2013-03-24 16:32:00,35.0,26.0,29.65,ENE,78,21.0,28.0,70,0.00,,,0.00,,2013-03-24 20:32:00,
2013-03-24 16:43:00,35.0,26.0,29.65,ENE,78,21.0,28.0,70,0.00,,,0.00,,2013-03-24 20:43:00,
2013-03-24 16:53:00,35.0,26.0,29.62,East,98,19.0,31.0,70,0.00,,,0.00,,2013-03-24 20:53:00,
2013-03-24 17:03:00,35.0,25.0,29.62,ENE,64,20.0,32.0,66,0.00,,,0.00,,2013-03-24 21:03:00,
2013-03-24 17:12:00,35.0,25.0,29.62,ENE,64,20.0,32.0,66,0.00,,,0.00,,2013-03-24 21:12:00,
2013-03-24 17:22:00,34.0,24.0,29.64,ENE,73,21.0,30.0,67,0.00,,,0.00,,2013-03-24 21:22:00,
2013-03-24 17:33:00,34.0,25.0,29.63,East,86,18.0,27.0,69,0.00,,,0.00,,2013-03-24 21:33:00,
2013-03-24 17:43:00,34.0,25.0,29.63,East,86,18.0,27.0,69,0.00,,,0.00,,2013-03-24 21:43:00,
2013-03-24 17:53:00,34.0,24.0,29.61,ENE,78,18.0,30.0,67,0.00,,,0.00,,2013-03-24 21:53:00,
2013-03-24 18:03:00,33.0,24.0,29.61,ENE,71,18.0,25.0,68,0.00,,,0.00,,2013-03-24 22:03:00,
2013-03-24 18:13:00,33.0,24.0,29.61,ENE,71,18.0,25.0,68,0.00,,,0.00,,2013-03-24 22:13:00,
2013-03-24 18:23:00,33.0,24.0,29.60,NE,53,14.0,24.0,69,0.00,,,0.00,,2013-03-24 22:23:00,
2013-03-24 18:33:00,33.0,24.0,29.60,East,81,17.0,28.0,68,0.00,,,0.00,,2013-03-24 22:33:00,
2013-03-24 18:43:00,33.0,24.0,29.60,East,81,17.0,28.0,68,0.00,,,0.00,,2013-03-24 22:43:00,
2013-03-24 18:52:00,33.0,24.0,29.61,East,80,18.0,25.0,69,0.00,,,0.00,,2013-03-24 22:52:00,
2013-03-24 19:03:00,33.0,25.0,29.59,ENE,69,19.0,28.0,71,0.00,,,0.00,,2013-03-24 23:03:00,
2013-03-24 19:12:00,33.0,25.0,29.59,ENE,69,19.0,28.0,71,0.00,,,0.00,,2013-03-24 23:12:00,
2013-03-24 19:22:00,33.0,25.0,29.59,ENE,59,16.0,25.0,71,0.00,,,0.00,,2013-03-24 23:22:00,
2013-03-24 19:32:00,32.0,24.0,29.58,ENE,59,18.0,24.0,71,0.00,,,0.00,,2013-03-24 23:32:00,
2013-03-24 19:42:00,32.0,24.0,29.58,ENE,59,18.0,24.0,71,0.00,,,0.00,,2013-03-24 23:42:00,
2013-03-24 19:52:00,32.0,24.0,29.58,ENE,59,15.0,22.0,72,0.00,,,0.00,,2013-03-24 23:52:00,
2013-03-24 20:02:00,32.0,24.0,29.58,ENE,67,18.0,26.0,73,0.00,,,0.00,,2013-03-25 00:02:00,
2013-03-24 20:12:00,32.0,24.0,29.58,ENE,67,18.0,26.0,73,0.00,,,0.00,,2013-03-25 00:12:00,
2013-03-24 20:22:00,32.0,25.0,29.58,East,98,16.0,26.0,74,0.00,,,0.00,,2013-03-25 00:22:00,
2013-03-24 20:32:00,32.0,25.0,29.57,ENE,76,13.0,25.0,75,0.00,,,0.00,,2013-03-25 00:32:00,
2013-03-24 20:43:00,32.0,25.0,29.57,ENE,76,13.0,25.0,75,0.00,,,0.00,,2013-03-25 00:43:00,
2013-03-24 20:52:00,32.0,25.0,29.57,East,82,16.0,22.0,75,0.00,,,0.00,,2013-03-25 00:52:00,
2013-03-24 21:02:00,32.0,25.0,29.57,ENE,67,14.0,24.0,76,0.00,,,0.00,,2013-03-25 01:02:00,
2013-03-24 21:12:00,32.0,25.0,29.57,ENE,67,14.0,24.0,76,0.00,,,0.00,,2013-03-25 01:12:00,
2013-03-24 21:22:00,32.0,26.0,29.57,East,80,12.0,22.0,77,0.00,,,0.00,,2013-03-25 01:22:00,
2013-03-24 21:32:00,32.0,26.0,29.57,NE,44,16.0,23.0,77,0.00,,,0.00,,2013-03-25 01:32:00,
2013-03-24 21:42:00,32.0,26.0,29.57,NE,44,16.0,23.0,77,0.00,,,0.00,,2013-03-25 01:42:00,
2013-03-24 21:52:00,32.0,26.0,29.59,ENE,58,13.0,21.0,78,0.00,,,0.00,,2013-03-25 01:52:00,
2013-03-24 22:02:00,32.0,26.0,29.60,NE,36,10.0,22.0,79,0.00,,,0.00,,2013-03-25 02:02:00,
2013-03-24 22:12:00,32.0,26.0,29.60,NE,36,10.0,22.0,79,0.00,,,0.00,,2013-03-25 02:12:00,
2013-03-24 22:22:00,32.0,26.0,29.60,ENE,67,11.0,21.0,79,0.00,,,0.00,,2013-03-25 02:22:00,
2013-03-24 22:33:00,31.0,26.0,29.60,NE,56,10.0,17.0,82,0.00,,,0.00,,2013-03-25 02:33:00,
2013-03-24 22:43:00,31.0,26.0,29.60,NE,56,10.0,17.0,82,0.00,,,0.00,,2013-03-25 02:43:00,
2013-03-24 22:52:00,31.0,27.0,29.60,NE,40,10.0,20.0,85,0.00,,,0.00,,2013-03-25 02:52:00,
2013-03-24 23:03:00,30.0,27.0,29.59,NE,44,11.0,17.0,87,0.00,,,0.00,,2013-03-25 03:03:00,
2013-03-24 23:13:00,30.0,27.0,29.59,NE,44,11.0,17.0,87,0.00,,,0.00,,2013-03-25 03:13:00,
2013-03-24 23:23:00,29.0,26.0,29.58,NE,46,12.0,21.0,90,0.00,,,0.00,,2013-03-25 03:23:00,
2013-03-24 23:34:00,29.0,26.0,29.58,NE,46,12.0,21.0,90,0.00,,,0.00,,2013-03-25 03:34:00,
2013-03-24 23:43:00,29.0,26.0,29.58,NE,46,12.0,21.0,90,0.00,,,0.00,,2013-03-25 03:43:00,
2013-03-24 23:53:00,29.0,27.0,29.57,NE,46,10.0,18.0,93,0.00,,,0.00,,2013-03-25 03:53:00,